Location: Campillo
(40.8621°N, 4.2488°W)
Time: 15:32:01
(UTC+00:00)

Cosmos 1777 Rocket - Pass Details

Date: 01 October 2021
Orbit: 759 x 775 km, 74.0° (Epoch: 23 October)

Event Time Altitude Azimuth Distance (km) Brightness Sun altitude
Rises 04:57:16 0° 334° (NNW) 3,226 7.1 -15.2°
Reaches altitude 10° 04:59:42 10° 329° (NNW) 2,296 6.2 -14.8°
Maximum altitude 05:04:40 47° 257° (WSW) 995 4.2 -13.8°
Drops below altitude 10° 05:09:38 10° 184° (S) 2,285 6.4 -12.9°
Sets 05:12:03 0° 178° (S) 3,208 7.2 -12.5°
